Weather Service Report


491 
ASUS43 KLOT 310010
RWRIL 

ILLINOIS REGIONAL WEATHER ROUNDUP
NATIONAL WEATHER SERVICE CHICAGO/ROMEOVILLE IL
700 PM CDT WED JUL 30 2014

NOTE: "FAIR" INDICATES FEW OR NO CLOUDS BELOW 12,000 FEET WITH NO
SIGNIFICANT WEATHER AND/OR OBSTRUCTIONS TO VISIBILITY.

* THESE STATIONS ARE NOT UNDER NWS QUALITY CONTROL. THEY ALSO MAY NOT
  REPORT WEATHER SUCH AS PRECIPITATION OR FOG.

ILZ001-002-007-009-015-016-024-310100-
NORTHWEST ILLINOIS
  
CITY           SKY/WX    TMP DP  RH WIND       PRES   REMARKS
MOLINE         MOSUNNY   78  58  49 NW8       30.03R                  
6HR MIN TEMP:  78; 6HR MAX TEMP:  82;                                

STERLING*      SUNNY     77  57  50 N8        30.02S                  
SAVANNA*       SUNNY     77  52  41 NW8       30.02S                  
$$

ILZ003-004-008-010-011-017-018-310100-
NORTH CENTRAL ILLINOIS
  
CITY           SKY/WX    TMP DP  RH WIND       PRES   REMARKS
ROCKFORD       MOSUNNY   77  53  43 NW9       30.02S                  
6HR MIN TEMP:  75; 6HR MAX TEMP:  80; 6HR PCP: TRACE;                

FREEPORT*      SUNNY     74  56  54 NW7       30.04F                  
ROCHELLE*      SUNNY     76  56  49 W8        30.03R                  
DE KALB*       SUNNY     73  57  57 NW9       30.02S                  
PERU*          MOSUNNY   76  59  56 NW7       30.03R                  
$$

ILZ005-006-012>014-019>023-310100-
NORTHEAST ILLINOIS
  
CITY           SKY/WX    TMP DP  RH WIND       PRES   REMARKS
CHICAGO-OHARE  MOSUNNY   73  56  54 NE6       30.00S                  
6HR MIN TEMP:  71; 6HR MAX TEMP:  79;                                

CHICAGO-MIDWAY MOSUNNY   72  59  63 E6        30.01S                  
6HR MIN TEMP:  71; 6HR MAX TEMP:  80;                                

AURORA         SUNNY     75  58  55 W8        30.01S                  
6HR MIN TEMP:  75; 6HR MAX TEMP:  79;                                

LANSING*       SUNNY     69  58  69 NE6       30.01S                  
JOLIET*        SUNNY     76  55  47 NW6       30.01S                  
WAUKEGAN       SUNNY     65  55  70 E6        30.01S                  
6HR MIN TEMP:  65; 6HR MAX TEMP:  71;                                

DUPAGE AIRPORT SUNNY     77  54  44 W10       30.00S                  
6HR MIN TEMP:  76; 6HR MAX TEMP:  80;                                

KANKAKEE*      SUNNY     74  61  62 W6        30.01S                  
WHEELING       SUNNY     70  57  63 VRB5      30.03S                  
6HR MIN TEMP:  70; 6HR MAX TEMP:  79;                                

MORRIS*        SUNNY     75  61  62 NW5       30.01R                  
ROMEOVILLE*    SUNNY     75  55  48 NW8       30.01R                  
NORTHERLY ISL    N/A     65  60  84 NE3         N/A                   
$$

LMZ740>746-310100-
SOUTHERN LAKE MICHIGAN
  
STATION/POSITION SKY/WX   TEMP    WIND        PRES    VSBY  WAVE
                          AIR SEA DIR/SP/G                  HT/PER
                          (F)     (DEG/KT/KT) (MB)    (MI)  (FT/S)
SOUTHERN BUOY              62 62   60/  2/  2 1016.4F         1
WAUKEGAN HARBOR            64     100/  3/  5   N/A
HARRISON CRIB              64      40/  5/  6   N/A
BURNHAM HARBOR             65      80/  2/  6   N/A
CALUMET HARBOR             65      40/  3/  5 1015.3S
BURNS HARBOR               67      50/  9/ 10 1016.9F
MICHIGAN CITY              63      20/  7/  8   N/A
MICHIGAN CITY 6N           64 69   50/  8/ 10   N/A           1/ 3
ST. JOSEPH                 63 68   20/ 10/ 12   N/A           1/ 2
$$

ILZ025>027-034>036-040-047-049-050-058-095>099-310100-
WEST-CENTRAL ILLINOIS
  
CITY           SKY/WX    TMP DP  RH WIND       PRES   REMARKS
QUINCY         SUNNY     76  59  55 N3        30.05F                  
GALESBURG*     SUNNY     79  63  58 W3        30.04S HX  80           
MACOMB*        SUNNY     76  61  61 W6        30.07S                  
JACKSONVILLE*  MOSUNNY   78  63  60 CALM      30.06S HX  80           
PITTSFIELD*    MOSUNNY   77  60  55 CALM      30.06S                  
$$

ILZ028>032-037-038-041>044-048-051>054-059>061-310100-
CENTRAL ILLINOIS
  
CITY           SKY/WX    TMP DP  RH WIND       PRES   REMARKS
PONTIAC        SUNNY     77  61  57 NW5       30.02S                  
DECATUR        SUNNY     78  56  46 NW8       30.04S                  
PEORIA         SUNNY     80  56  43 W7        30.03S HX  80           
6HR MIN TEMP:  79; 6HR MAX TEMP:  83;                                

LACON*         PTSUNNY   78  58  51 NW7       30.01S                  
LINCOLN*       SUNNY     79  58  48 W3        30.01S HX  80           
SPRINGFIELD    SUNNY     78  62  57 NW3       30.04F HX  80           
6HR MIN TEMP:  78; 6HR MAX TEMP:  82;                                

TAYLORVILLE    MOSUNNY   73  63  68 CALM      30.04S                  
$$

ILZ033-039-045-046-055>057-062-063-310100-
EAST-CENTRAL ILLINOIS
  
CITY           SKY/WX    TMP DP  RH WIND       PRES   REMARKS
CHAMPAIGN      SUNNY     75  63  66 W7        30.04S                  
DANVILLE*      SUNNY     72  62  71 W6        30.00S HAZE             
RANTOUL*       MOSUNNY   77  60  56 W5        30.04R                  
MATTOON        SUNNY     74  61  63 W5        30.03F                  
PARIS*         SUNNY     76  64  66 W3        30.04S                  
$$

ILZ079-100>102-310100-
SOUTHWEST ILLINOIS
  
CITY           SKY/WX    TMP DP  RH WIND       PRES   REMARKS
ALTON          MOSUNNY   77  57  50 NW7       30.04F                  
BELLEVILLE     PTSUNNY   78  60  53 SW3       30.03F HX  80           
CAHOKIA*       PTSUNNY   79  60  52 S3        30.03F HX  80           
SPARTA*        CLOUDY    73  61  64 S6        30.06S                  
$$

ILZ064>066-069>071-074>076-080>082-084>086-088>090-092>094-310100-
SOUTH-CENTRAL ILLINOIS
  
CITY           SKY/WX    TMP DP  RH WIND       PRES   REMARKS
CARBONDALE     CLOUDY    74  60  61 SW3       30.06F                  
6HR MIN TEMP:  74; 6HR MAX TEMP:  79;                                

CAIRO*         CLOUDY    76  63  63 CALM      30.06F                  
EFFINGHAM*     MOSUNNY   76  56  48 NW3       30.04S                  
MARION         PTSUNNY   75  61  60 SW6       30.07F                  
MT. VERNON     PTSUNNY   77  61  57 SW13      30.07R                  
CENTRALIA*     PTSUNNY   79  60  51 SW9       30.05S HX  80           
SALEM*         MOSUNNY  N/A N/A N/A SW7       30.05S                  
METROPOLIS*    CLOUDY    75  56  50 CALM      30.06F                  
$$

ILZ067-068-072-073-078-083-087-091-310100-
SOUTHEAST ILLINOIS
  
CITY           SKY/WX    TMP DP  RH WIND       PRES   REMARKS
LAWRENCEVILLE  MOSUNNY   77  60  55 SW3       30.05R                  
FLORA*         MOSUNNY   77  53  44 W6        30.05R                  
FAIRFIELD*     MOSUNNY   77  64  65 SW6       30.05S                  
HARRISBURG*    PTSUNNY   74  60  61 SW5       30.07F                  
ROBINSON*      SUNNY     77  64  63 W5        30.05S                  
CARMI*         PTSUNNY   75  64  69 SW6       30.05S                  
$$

ABBREVIATIONS USED IN REMARKS
   TC - TEMPERATURE IN CELSIUS
  WCI - WIND CHILL INDEX
   HX - HEAT INDEX
  VSB - VISIBILITY
$$


Return to Home page


Western Regional Climate Center, wrcc@dri.edu